This is the latest recevied weather packets stored in our database for station/object SQ9RHX-13. If no packets are shown the sender has not sent any weather packets the latest 10 day(s).
| Time | Temp. | Humidity | Pressure | Rain* | Wind** | Luminosity | Snow |
|---|---|---|---|---|---|---|---|
| 1778230806 | 11.67° C | 72% | 1023.1 hPa | 0 mm | - | 206 W/m² | - |
| 1778230503 | 12.22° C | 72% | 1023.3 hPa | 0 mm | - | 158 W/m² | - |
| 1778230209 | 12.22° C | 72% | 1023.1 hPa | 0 mm | - | 180 W/m² | - |
| 1778229902 | 12.22° C | 73% | 1023 hPa | 0 mm | - | 201 W/m² | - |
| 1778229602 | 11.67° C | 73% | 1023.1 hPa | 0 mm | - | 256 W/m² | - |
| 1778229303 | 12.22° C | 72% | 1023 hPa | 0 mm | - | 230 W/m² | - |
| 1778229004 | 11.67° C | 72% | 1023.3 hPa | 0 mm | - | 221 W/m² | - |
| 1778228703 | 11.67° C | 72% | 1023.1 hPa | 0 mm | - | 248 W/m² | - |
| 1778228403 | 12.22° C | 71% | 1023.1 hPa | 0 mm | - | 253 W/m² | - |
| 1778228102 | 11.67° C | 73% | 1023.1 hPa | 0 mm | - | 274 W/m² | - |
| 1778227803 | 11.67° C | 72% | 1022.9 hPa | 0 mm | - | 238 W/m² | - |
| 1778227506 | 11.67° C | 72% | 1022.9 hPa | 0 mm | - | 332 W/m² | - |
| 1778227204 | 11.11° C | 74% | 1022.8 hPa | 0 mm | - | 302 W/m² | - |
| 1778226905 | 11.11° C | 73% | 1022.9 hPa | 0 mm | - | 270 W/m² | - |
| 1778226604 | 11.11° C | 74% | 1022.8 hPa | 0 mm | - | 235 W/m² | - |
| 1778226302 | 11.11° C | 73% | 1022.9 hPa | 0 mm | - | 198 W/m² | - |
| 1778226003 | 11.11° C | 75% | 1022.7 hPa | 0 mm | - | 176 W/m² | - |
| 1778225702 | 11.11° C | 74% | 1022.6 hPa | 0 mm | - | 187 W/m² | - |
| 1778225404 | 10.56° C | 75% | 1022.6 hPa | 0 mm | - | 202 W/m² | - |
| 1778225103 | 10.56° C | 75% | 1022.5 hPa | 0 mm | - | 193 W/m² | - |
| 1778224803 | 10.56° C | 75% | 1022.5 hPa | 0 mm | - | 227 W/m² | - |
| 1778224503 | 10.56° C | 77% | 1022.5 hPa | 0 mm | - | 217 W/m² | - |
| 1778224204 | 10° C | 78% | 1022.5 hPa | 0 mm | - | 210 W/m² | - |
| 1778223904 | 10° C | 78% | 1022.4 hPa | 0 mm | - | 177 W/m² | - |
| 1778223602 | 9.44° C | 78% | 1022.4 hPa | 0 mm | - | 171 W/m² | - |
* Rain latest hour (hover to see other rain measurements)
** Current wind speed in m/s (hover to see current wind gust speed)